EN

Hourly Weather Abeshe

Today, 4 December, Friday

Time Temperature Precipitation Wind Pressure Humidity
00:00 +24°C° 0 mm 3 mps 712 mmHg 17%
01:00 +24°C° 0 mm 3 mps 712 mmHg 17%
02:00 +22°C° 0 mm 3 mps 712 mmHg 18%
03:00 +21°C° 0 mm 3 mps 712 mmHg 19%
04:00 +20°C° 0 mm 3 mps 712 mmHg 20%
05:00 +21°C° 0 mm 3 mps 712 mmHg 19%
06:00 +22°C° 0 mm 3 mps 713 mmHg 19%
07:00 +24°C° 0 mm 3 mps 713 mmHg 19%
08:00 +27°C° 0 mm 3 mps 714 mmHg 17%
09:00 +30°C° 0 mm 3 mps 714 mmHg 14%
10:00 +34°C° 0 mm 3 mps 715 mmHg 11%
11:00 +35°C° 0 mm 3 mps 714 mmHg 11%
12:00 +36°C° 0 mm 3 mps 713 mmHg 10%
13:00 +37°C° 0 mm 3 mps 713 mmHg 10%
14:00 +37°C° 0 mm 3 mps 713 mmHg 10%
15:00 +36°C° 0 mm 3 mps 712 mmHg 10%
16:00 +36°C° 0 mm 3 mps 712 mmHg 11%
17:00 +33°C° 0 mm 3 mps 712 mmHg 13%
18:00 +30°C° 0 mm 2 mps 712 mmHg 15%
19:00 +27°C° 0 mm 2 mps 712 mmHg 17%
20:00 +27°C° 0 mm 2 mps 712 mmHg 17%
21:00 +26°C° 0 mm 2 mps 713 mmHg 18%
22:00 +26°C° 0 mm 2 mps 713 mmHg 18%
23:00 +25°C° 0 mm 2 mps 713 mmHg 18%

Tomorrow, 5 December, Saturday

Time Temperature Precipitation Wind Pressure Humidity
00:00 +25°C° 0 mm 2 mps 713 mmHg 18%
01:00 +24°C° 0 mm 3 mps 712 mmHg 18%
02:00 +24°C° 0 mm 3 mps 712 mmHg 18%
03:00 +22°C° 0 mm 3 mps 712 mmHg 19%
04:00 +22°C° 0 mm 3 mps 712 mmHg 20%
05:00 +22°C° 0 mm 3 mps 712 mmHg 20%
06:00 +24°C° 0 mm 3 mps 713 mmHg 20%
07:00 +25°C° 0 mm 3 mps 713 mmHg 20%
08:00 +28°C° 0 mm 4 mps 714 mmHg 17%
09:00 +32°C° 0 mm 4 mps 714 mmHg 14%
10:00 +35°C° 0 mm 4 mps 714 mmHg 11%
11:00 +36°C° 0 mm 3 mps 714 mmHg 11%
12:00 +37°C° 0 mm 2 mps 713 mmHg 10%
13:00 +37°C° 0 mm 1 mps 712 mmHg 10%
14:00 +37°C° 0 mm 1 mps 712 mmHg 10%
15:00 +37°C° 0 mm 1 mps 711 mmHg 10%
16:00 +36°C° 0 mm 1 mps 711 mmHg 11%
17:00 +34°C° 0 mm 1 mps 711 mmHg 13%
18:00 +31°C° 0 mm 1 mps 711 mmHg 15%
19:00 +28°C° 0 mm 2 mps 711 mmHg 17%
20:00 +28°C° 0 mm 2 mps 712 mmHg 17%
21:00 +27°C° 0 mm 2 mps 712 mmHg 17%
22:00 +27°C° 0 mm 3 mps 712 mmHg 17%
23:00 +27°C° 0 mm 3 mps 712 mmHg 17%

Day after tomorrow, 6 December, Sunday

Time Temperature Precipitation Wind Pressure Humidity
00:00 +26°C° 0 mm 4 mps 712 mmHg 18%
01:00 +25°C° 0 mm 4 mps 712 mmHg 18%
02:00 +25°C° 0 mm 4 mps 712 mmHg 18%
03:00 +23°C° 0 mm 5 mps 712 mmHg 18%
04:00 +23°C° 0 mm 5 mps 712 mmHg 17%
05:00 +23°C° 0 mm 5 mps 712 mmHg 17%
06:00 +25°C° 0 mm 5 mps 713 mmHg 17%
07:00 +24°C° 0 mm 6 mps 713 mmHg 17%
08:00 +28°C° 0 mm 5 mps 713 mmHg 15%
09:00 +32°C° 0 mm 5 mps 714 mmHg 13%
10:00 +35°C° 0 mm 4 mps 714 mmHg 11%
11:00 +36°C° 0 mm 3 mps 713 mmHg 10%
12:00 +37°C° 0 mm 2 mps 712 mmHg 10%
13:00 +38°C° 0 mm 2 mps 712 mmHg 10%
14:00 +37°C° 0 mm 1 mps 711 mmHg 10%
15:00 +37°C° 0 mm 1 mps 711 mmHg 10%
16:00 +35°C° 0 mm 0 mps 711 mmHg 11%
17:00 +34°C° 0 mm 1 mps 711 mmHg 13%
18:00 +31°C° 0 mm 1 mps 711 mmHg 15%
19:00 +28°C° 0 mm 2 mps 711 mmHg 17%
20:00 +28°C° 0 mm 2 mps 712 mmHg 17%
21:00 +28°C° 0 mm 3 mps 712 mmHg 17%
22:00 +28°C° 0 mm 3 mps 712 mmHg 16%
23:00 +27°C° 0 mm 3 mps 712 mmHg 16%

7 December, Monday

Time Temperature Precipitation Wind Pressure Humidity
00:00 +27°C° 0 mm 4 mps 712 mmHg 16%
01:00 +26°C° 0 mm 4 mps 712 mmHg 16%
02:00 +25°C° 0 mm 4 mps 712 mmHg 16%
03:00 +25°C° 0 mm 5 mps 712 mmHg 16%
04:00 +23°C° 0 mm 5 mps 712 mmHg 17%
05:00 +25°C° 0 mm 5 mps 713 mmHg 17%
06:00 +25°C° 0 mm 5 mps 713 mmHg 16%
07:00 +26°C° 0 mm 5 mps 714 mmHg 16%
08:00 +29°C° 0 mm 6 mps 714 mmHg 14%
09:00 +33°C° 0 mm 6 mps 715 mmHg 12%
10:00 +36°C° 0 mm 6 mps 715 mmHg 10%
11:00 +37°C° 0 mm 5 mps 714 mmHg 10%
12:00 +38°C° 0 mm 4 mps 713 mmHg 9%
13:00 +39°C° 0 mm 3 mps 713 mmHg 9%
14:00 +39°C° 0 mm 3 mps 712 mmHg 9%
15:00 +39°C° 0 mm 3 mps 712 mmHg 9%
16:00 +39°C° 0 mm 3 mps 712 mmHg 9%
17:00 +36°C° 0 mm 3 mps 712 mmHg 11%
18:00 +33°C° 0 mm 3 mps 712 mmHg 13%
19:00 +30°C° 0 mm 4 mps 712 mmHg 15%
20:00 +29°C° 0 mm 4 mps 713 mmHg 15%
21:00 +29°C° 0 mm 4 mps 713 mmHg 15%
22:00 +28°C° 0 mm 4 mps 713 mmHg 16%
23:00 +27°C° 0 mm 4 mps 713 mmHg 17%

8 December, Tuesday

Time Temperature Precipitation Wind Pressure Humidity
00:00 +26°C° 0 mm 5 mps 713 mmHg 18%
01:00 +26°C° 0 mm 5 mps 713 mmHg 19%
02:00 +25°C° 0 mm 5 mps 713 mmHg 19%
03:00 +25°C° 0 mm 5 mps 713 mmHg 20%
04:00 +23°C° 0 mm 5 mps 713 mmHg 20%
05:00 +24°C° 0 mm 6 mps 714 mmHg 19%
06:00 +26°C° 0 mm 6 mps 714 mmHg 17%
07:00 +26°C° 0 mm 7 mps 715 mmHg 16%
08:00 +29°C° 0 mm 7 mps 715 mmHg 14%
09:00 +33°C° 0 mm 8 mps 715 mmHg 12%
10:00 +37°C° 0 mm 8 mps 715 mmHg 10%
11:00 +38°C° 0 mm 7 mps 715 mmHg 9%
12:00 +39°C° 0 mm 6 mps 714 mmHg 8%
13:00 +41°C° 0 mm 5 mps 713 mmHg 8%
14:00 +40°C° 0 mm 5 mps 713 mmHg 8%
15:00 +40°C° 0 mm 4 mps 713 mmHg 8%
16:00 +38°C° 0 mm 4 mps 712 mmHg 9%
17:00 +36°C° 0 mm 3 mps 712 mmHg 11%
18:00 +33°C° 0 mm 3 mps 712 mmHg 12%
19:00 +29°C° 0 mm 3 mps 712 mmHg 14%
20:00 +29°C° 0 mm 3 mps 712 mmHg 15%
21:00 +28°C° 0 mm 4 mps 713 mmHg 15%
22:00 +28°C° 0 mm 5 mps 713 mmHg 15%
23:00 +27°C° 0 mm 5 mps 713 mmHg 16%

9 December, Wednesday

Time Temperature Precipitation Wind Pressure Humidity
00:00 +26°C° 0 mm 5 mps 713 mmHg 17%
01:00 +25°C° 0 mm 5 mps 713 mmHg 17%
02:00 +25°C° 0 mm 5 mps 713 mmHg 18%
03:00 +25°C° 0 mm 5 mps 713 mmHg 18%
04:00 +25°C° 0 mm 5 mps 713 mmHg 19%
05:00 +24°C° 0 mm 6 mps 713 mmHg 19%
06:00 +26°C° 0 mm 7 mps 714 mmHg 19%
07:00 +26°C° 0 mm 7 mps 714 mmHg 19%
08:00 +29°C° 0 mm 8 mps 714 mmHg 17%
09:00 +33°C° 0 mm 8 mps 714 mmHg 14%
10:00 +37°C° 0 mm 8 mps 715 mmHg 12%
11:00 +38°C° 0 mm 7 mps 714 mmHg 10%
12:00 +39°C° 0 mm 6 mps 713 mmHg 9%
13:00 +40°C° 0 mm 5 mps 712 mmHg 8%
14:00 +40°C° 0 mm 4 mps 712 mmHg 8%
15:00 +40°C° 0 mm 4 mps 712 mmHg 8%
16:00 +38°C° 0 mm 3 mps 711 mmHg 8%
17:00 +36°C° 0 mm 3 mps 711 mmHg 10%
18:00 +33°C° 0 mm 4 mps 712 mmHg 12%
19:00 +29°C° 0 mm 4 mps 712 mmHg 14%
20:00 +29°C° 0 mm 4 mps 712 mmHg 14%
21:00 +28°C° 0 mm 5 mps 713 mmHg 15%
22:00 +28°C° 0 mm 5 mps 713 mmHg 15%
23:00 +27°C° 0 mm 5 mps 713 mmHg 16%
Show more